THOR ABLESTAR DEB, 644

Orbit data source: Space-Track

THOR ABLESTAR DEB, 644 is space debris in LEO originally from a launch on Thu, 29 Jun 1961 UTC launched from the Air Force Eastern Test Range (AFETR). Debris objects in space refer to the collection of defunct objects orbiting the Earth. Examples of debris include non-operational satellites, rocket bodies, and fragments generated from explosions, collisions, or faulty payload assembly.

Loading next visibility...
THOR ABLESTAR DEB details
Identifier
644, 1961-015GV
Orbit
LEO
Last TLE update17 hours ago
Origin
Flag of USUSAF SSD (US)
ManufacturerUnknown
MissionSpacecraft
Bus & MotorUnknown
MassUnknown
Launch date (UTC)
1961-06-29 (64 years ago)
Launch vehicleUnknown
Launch site
Air Force Eastern Test Range (AFETR)
Object type
Payload
Rocket body
Debris
Shape & HBRUnknown
Radar Cross SectionSmall (<0.1 m²)

Expand to show TLE details & history

TLE from 17 hours ago
0 THOR ABLESTAR DEB
1 00644U 61015GV  25042.91098965  .00000980  00000-0  13107-2 0  9998
2 00644  67.1005 340.7022 0136288 106.1808 315.2602 13.60454705131026
Epoch: 2025-02-11T21:51Z
Definitive object data (Epoch: 2025-02-11T21:51:49.505Z)
Latitude53.28419°
Longitude-95.17028°
Altitude970.86 km
Speed7.407 km/s
True Right ascension00h 59m 58s
True Declination53° 07' 26"
Sunlit
Object was in daylight at TLE epoch
Visualization TLE readout
Latitude-35.63962°
Longitude66.48434°
Altitude1,085.459 km
Speed7.29 km/s
Apparent Right ascension08h 53m 47s
Apparent Declination-50° 07' 08"
Sunlit
Object is in full shadow
Visualization observer readout
Local Sidereal Time17:01:35
Azimuth235.721° WSW
Elevation-48.82°
Doppler factor1
Orbital elements
Apogee altitude1,133.42 km
Perigee altitude931.426 km
Semi-major axis7,410.56 km
Eccentricity0.0136288
Inclination67.1005°
RAAN340.7022°
Arg. of periapsis106.1808°
True anomaly314.14752°
Mean anomaly315.2602°
Eccentric anomaly314.70521°
Mean motion3.40225 °/min
BSTAR0.0013107
Orbital period105.81 mins
Loading maneuver chart data...

THOR ABLESTAR DEB Visibility forecast

Observer location: undefined°, undefined

Span
Click to sort rows by Start time (UTC) header in descending order
Start Az.
Max El. time (UTC)
Max El. Az.
Max El.
End time (UTC)
End Az.
11 mins2025-02-12 20:36:29.354Z180.858° SSW2025-02-12 20:42:29.354Z108.112° ESE35.354°2025-02-12 20:47:29.354Z43.749° NE
9 mins2025-02-12 22:27:29.354Z257.848° W2025-02-12 22:31:29.354Z312.922° NW28.177°2025-02-12 22:36:29.354Z10.292° NNE
10 mins2025-02-13 05:53:29.354Z345.862° N2025-02-13 05:57:29.354Z40.328° NE37.234°2025-02-13 06:03:29.354Z130.227° SE
7 mins2025-02-13 07:43:29.354Z291.589° WNW2025-02-13 07:46:29.354Z251.863° W23.354°2025-02-13 07:50:29.354Z205.644° SW
|